Temperature
15 15 15 16 14 12 13 14 15 16 16 17 18 17 16 16 16 16 15 16 16 16 16 16 16 16 16 16 17 16 16 16 16 16 16 16 16 16 16 15 15 15 15 15 15 15 15 15 15
14 15 15 15 12 12 13 13 15 16 17 17 17 16 15 15 15 15 15 15 15 15 15 16 16 16 16 16 16 16 16 16 16 16 16 16 16 16 15 15 15 15 15 15 15 15 15 14 14
14 14 15 12 12 12 13 14 14 16 17 17 16 15 15 15 15 15 15 15 15 15 15 15 15 16 16 16 16 16 16 16 16 16 16 16 16 16 16 15 15 15 15 15 15 15 14 14 14
14 14 14 11 12 12 13 14 14 15 16 16 15 14 14 14 14 15 15 15 15 15 15 15 15 15 15 16 16 16 16 16 16 16 15 16 15 16 16 15 15 15 15 15 15 15 15 14 14
13 13 11 11 12 12 13 14 15 14 14 15 14 13 13 14 14 14 14 14 14 14 15 15 15 15 15 15 15 15 15 16 16 15 15 15 15 15 16 15 15 15 15 15 15 15 14 14 14
13 11 10 11 11 12 13 14 14 13 14 14 13 12 13 13 14 14 14 14 14 14 14 14 14 14 15 15 15 15 15 15 15 15 15 15 15 15 15 15 15 15 15 14 14 14 14 14 13
11 10 10 11 11 12 13 14 13 13 12 13 13 12 12 13 13 13 13 13 13 14 14 14 14 14 14 14 14 15 15 15 15 15 15 15 15 15 15 15 15 15 14 14 14 14 14 14 13
12 9 10 10 11 12 13 13 13 13 13 13 13 12 12 12 12 13 13 13 13 13 13 13 13 13 13 14 14 14 14 14 14 14 15 15 15 15 15 15 14 14 14 14 14 14 14 14 13
11 8 9 10 11 11 12 12 13 13 13 12 12 13 12 12 12 12 12 12 12 12 12 12 13 13 13 13 13 14 14 14 14 14 14 14 14 14 14 14 14 14 14 14 14 14 14 14 13
10 8 9 11 11 11 11 11 12 12 11 11 11 12 12 12 12 12 12 12 12 12 12 12 12 12 13 13 13 13 13 13 14 14 14 14 14 14 14 14 14 14 14 14 14 14 13 13 13
9 8 9 10 11 11 11 11 11 11 10 10 11 11 11 11 11 11 11 11 11 11 11 12 12 12 12 12 12 13 13 13 13 13 13 13 14 14 14 14 14 14 14 14 14 13 13 13 13
9 9 10 10 11 11 10 10 10 10 10 11 11 11 11 11 11 11 11 11 11 11 11 11 11 12 12 12 12 12 12 12 13 13 13 13 13 13 13 13 13 13 13 13 13 13 13 13 13
8 9 9 10 10 10 10 9 9 9 10 10 10 10 10 10 10 10 10 11 10 10 11 11 11 11 11 11 12 12 12 12 12 12 12 12 13 13 13 13 13 13 13 13 13 13 13 13 12
8 9 9 9 9 10 9 9 9 9 10 10 10 10 10 10 10 10 10 10 10 10 10 10 10 11 11 11 11 11 11 11 12 12 12 12 12 12 12 12 12 13 13 13 13 13 12 12 12
9 8 8 9 9 9 9 8 8 9 9 9 9 9 9 9 9 10 10 10 10 10 10 10 10 10 10 10 11 11 11 11 11 11 11 11 11 12 12 12 12 12 12 13 12 12 12 12 12
8 7 7 8 9 9 9 7 8 9 9 8 8 8 9 9 9 9 10 10 10 10 10 9 9 9 10 10 10 10 10 10 10 11 11 11 11 11 11 12 12 12 12 12 12 12 12 12 12
6 6 6 7 8 8 8 7 7 8 8 8 8 8 8 8 8 9 9 9 9 9 9 9 9 9 9 10 10 10 10 10 10 10 10 11 11 11 11 11 11 11 11 12 12 12 12 12 12
6 6 6 7 8 8 7 6 7 8 7 7 7 7 7 7 8 8 8 9 9 9 9 9 9 9 9 9 9 9 9 10 10 10 10 10 10 10 10 11 11 11 11 11 11 11 11 11 11
7 6 6 7 7 7 6 6 6 7 7 6 6 7 7 7 7 7 8 8 8 8 8 9 9 8 8 9 9 9 9 9 9 9 10 10 10 10 10 10 10 11 11 11 11 11 11 11 11
7 6 6 6 7 7 6 6 6 6 6 7 6 6 7 7 7 7 7 8 8 8 8 8 8 8 8 8 8 8 8 8 9 9 9 9 9 10 10 10 10 10 10 10 10 10 10 10 10
7 6 6 6 6 7 6 6 6 6 6 7 7 7 7 7 6 6 7 7 7 8 8 8 8 8 8 8 8 8 8 8 8 8 9 9 9 9 9 9 9 10 10 10 10 10 10 10 10
6 7 7 6 6 5 6 5 5 6 6 6 6 6 6 6 6 6 6 7 7 7 7 7 7 7 7 7 7 8 7 8 8 8 8 8 8 8 9 9 9 9 9 9 9 9 9 9 9
6 7 6 6 5 5 5 5 5 5 5 5 5 6 6 6 6 6 6 6 7 7 7 7 7 7 7 7 7 7 7 7 7 7 7 7 8 8 8 8 8 8 8 9 9 9 9 9 9
6 6 6 5 4 5 5 5 5 4 5 5 5 6 6 6 6 6 6 6 6 6 6 6 6 7 7 7 7 7 7 7 7 7 7 7 7 7 7 7 7 8 8 8 8 8 8 8 8
5 5 4 5 4 5 5 5 5 5 5 5 5 5 5 6 6 6 6 6 6 6 6 6 6 6 6 6 6 6 6 6 6 6 6 6 6 7 7 6 7 7 7 7 7 7 7 8 8
5 5 5 5 4 4 5 4 5 5 5 5 5 5 5 5 5 5 5 5 5 5 6 6 6 6 6 6 6 6 6 6 6 6 6 6 6 6 6 6 6 6 6 6 6 7 7 7 7
5 4 4 4 3 3 4 4 4 5 4 4 4 4 5 5 5 5 5 5 5 5 5 5 5 5 5 5 5 5 5 5 5 5 5 5 5 5 5 5 5 6 6 6 6 6 6 6 6
5 4 3 3 4 4 4 4 4 4 4 3 3 3 4 4 4 4 4 5 5 5 5 5 5 5 5 5 5 5 5 5 5 5 5 5 5 5 5 5 5 5 5 5 5 5 5 5 5
4 4 3 3 3 3 4 4 4 3 3 3 3 3 3 3 4 4 4 4 5 5 5 5 5 5 5 5 5 5 5 5 5 5 5 5 4 4 5 5 4 5 5 5 5 5 5 5 5
3 3 3 3 3 2 2 4 4 3 3 3 2 3 3 3 3 3 4 4 4 4 4 4 5 4 4 4 4 4 4 4 4 4 4 4 4 4 4 4 4 4 4 4 4 4 4 4 4
Wind_Speed
12 9 2 4 4 3 3 4 2 1 1 1 0 4 5 3 3 4 2 5 6 6 6 7 7 7 8 8 9 8 9 8 8 9 9 9 10 10 10 10 10 10 11 11 11 11 11 11 11
8 3 4 4 4 3 4 4 4 4 3 0 2 3 4 2 1 4 3 4 8 8 7 6 7 8 8 8 8 8 8 8 8 8 8 8 9 10 10 9 9 10 10 10 10 10 11 10 10
5 2 3 3 3 7 5 4 5 3 2 1 2 3 2 2 2 2 3 6 8 7 7 7 8 8 8 8 8 8 8 8 7 7 8 8 8 9 9 9 9 9 10 10 10 10 10 10 9
3 3 3 2 5 5 4 3 2 1 3 3 2 3 2 2 1 3 7 8 8 6 7 8 8 8 8 8 8 8 8 7 7 7 7 8 8 8 8 8 9 9 9 10 10 9 9 9 8
3 3 2 3 6 3 3 2 1 1 1 2 2 2 1 4 5 8 8 8 8 5 6 8 8 8 8 8 8 8 7 7 7 7 7 7 7 7 7 7 8 9 9 9 9 9 9 8 8
3 2 3 5 6 3 2 2 1 1 1 1 1 2 1 1 5 6 7 7 7 6 6 7 7 8 8 7 7 7 8 7 7 7 6 6 6 6 7 7 7 8 8 9 9 8 8 8 7
3 2 4 4 4 3 3 2 1 0 1 2 2 3 1 0 2 4 6 6 7 7 6 6 6 6 7 7 7 7 7 7 7 7 6 6 6 5 6 6 7 7 7 8 8 7 8 7 6
3 2 2 3 3 4 2 1 1 0 2 1 2 4 3 3 2 5 6 6 6 6 5 5 6 6 5 6 6 6 6 7 7 7 6 6 6 5 5 5 6 6 7 7 7 7 7 6 6
3 2 3 3 3 3 2 2 3 2 1 2 1 2 4 5 6 6 5 5 4 4 3 4 4 5 5 5 5 5 5 6 6 6 6 6 5 5 4 5 5 6 6 6 7 6 6 5 5
3 3 5 3 2 2 3 2 3 2 3 3 3 3 3 6 7 6 5 4 3 2 2 3 3 4 4 4 5 5 5 5 6 6 6 5 5 4 4 4 5 5 6 5 5 6 5 4 3
2 3 2 3 4 3 3 4 2 1 3 3 3 1 2 5 6 5 4 4 3 3 2 2 2 3 4 3 4 4 5 5 5 5 5 5 5 4 4 4 4 4 4 4 3 4 3 3 2
1 2 2 4 4 3 3 3 3 1 5 3 2 3 2 3 5 5 4 4 3 3 2 1 2 3 3 3 3 3 4 4 4 4 4 4 3 3 3 3 2 3 3 3 3 2 3 3 3
1 2 2 3 4 3 2 3 2 4 2 1 2 2 2 2 3 4 4 4 4 3 2 1 2 3 2 3 3 3 3 3 3 4 4 3 2 1 2 2 2 2 3 3 2 2 2 2 2
1 1 3 4 5 3 1 4 1 4 0 2 1 1 2 2 2 3 3 4 4 3 2 1 2 2 3 2 2 3 3 3 3 4 4 3 3 2 2 1 2 2 2 2 3 3 2 1 1
1 3 5 3 3 2 1 4 2 4 1 1 1 2 1 2 1 3 4 5 5 4 3 2 2 2 2 2 2 3 3 4 3 3 3 3 3 3 2 2 1 2 2 3 3 3 3 2 2
3 3 2 4 1 1 1 3 4 2 2 1 2 1 1 2 1 2 3 4 5 4 4 3 2 2 2 2 2 2 3 4 3 3 3 3 3 3 3 2 1 2 3 3 2 2 2 1 1
3 1 2 4 2 1 1 3 5 3 1 1 1 0 1 1 2 1 2 4 5 5 5 3 2 2 1 1 2 2 3 3 3 4 3 3 3 3 3 2 2 3 3 2 1 2 2 2 1
2 2 2 3 3 1 0 3 6 3 1 1 0 1 2 1 1 1 1 3 4 4 4 4 3 2 1 1 2 2 2 2 3 3 3 3 3 3 3 2 3 3 2 1 1 1 1 1 1
2 2 3 4 3 2 1 3 4 3 2 1 1 1 1 1 2 1 2 2 3 3 3 3 3 2 2 1 1 1 1 1 1 2 3 4 3 3 3 2 2 2 2 1 1 1 2 1 1
1 1 3 3 2 2 1 2 3 2 1 1 1 1 0 2 3 2 1 2 2 2 3 2 2 2 1 1 1 1 1 0 1 2 3 3 3 3 2 2 1 2 2 2 1 1 1 1 1
1 2 3 3 4 2 2 2 3 3 2 2 2 1 1 0 2 2 1 1 1 0 2 3 2 2 1 1 1 2 2 2 2 1 1 2 3 3 2 2 1 1 1 1 1 1 2 2 0
3 2 2 2 2 2 2 2 3 3 3 3 2 2 1 1 1 2 1 1 0 1 1 2 2 2 2 2 2 3 2 1 0 0 1 2 3 3 3 2 2 1 1 1 0 1 0 2 1
3 3 2 1 1 1 2 1 5 2 3 4 2 2 2 1 1 1 1 1 1 1 1 1 2 2 2 2 3 3 2 1 1 1 2 2 3 4 3 2 2 2 1 1 1 1 1 0 1
0 2 3 4 3 1 1 3 4 2 3 3 3 2 3 3 3 2 1 1 2 2 1 1 1 2 2 2 2 3 3 2 2 2 2 2 2 2 3 3 2 3 2 1 1 1 1 1 0
4 4 3 4 3 3 1 1 4 4 3 3 3 2 3 3 2 1 2 2 1 1 2 0 1 2 2 2 2 2 3 3 3 2 1 1 1 2 1 2 2 2 1 2 1 1 1 1 1
1 2 3 2 3 3 2 3 4 2 2 2 2 2 2 2 2 2 2 1 1 1 1 1 1 2 2 2 2 2 2 2 2 2 1 1 0 1 1 1 1 2 2 2 1 1 0 0 0
1 0 2 3 1 1 3 4 5 3 5 4 4 4 3 3 3 3 2 1 1 1 1 1 1 2 2 2 2 2 2 2 2 1 1 1 1 1 2 1 1 2 2 1 1 0 0 0 0
1 2 3 3 1 2 3 4 4 4 4 3 4 4 5 4 4 4 3 2 2 1 1 1 1 2 2 3 2 2 2 2 2 1 1 1 1 1 1 1 1 2 2 1 1 0 0 0 0
1 1 2 2 2 2 2 5 3 3 3 2 4 4 4 4 4 4 3 3 2 2 1 1 1 0 1 2 2 2 2 2 2 1 1 1 0 1 1 1 1 1 1 0 0 0 1 0 0
2 2 3 3 2 2 2 6 4 1 2 2 4 4 4 4 4 3 3 3 3 2 2 1 1 1 1 2 2 2 1 2 2 1 1 1 0 0 1 1 1 1 1 0 0 0 0 0 1
Wind_Direction
324 331 38 59 68 70 227 247 231 233 260 255 254 105 117 127 146 159 148 133 123 128 126 126 120 115 110 105 99 95 90 94 101 110 116 122 120 118 120 119 119 117 114 111 107 106 103 101 99
329 347 53 70 118 180 241 231 225 232 218 202 39 72 84 89 80 108 115 129 124 121 117 121 116 115 112 109 104 101 97 94 100 108 113 117 124 123 121 121 119 118 115 113 109 108 107 106 103
334 29 87 100 160 195 207 211 213 270 302 356 28 30 88 126 117 118 142 128 112 112 113 117 115 114 113 110 107 104 100 95 98 104 110 112 117 127 127 126 126 122 119 117 114 112 111 109 107
37 46 66 125 210 221 199 216 210 297 351 24 85 34 8 359 117 133 126 114 107 102 107 115 115 114 109 106 105 104 100 99 95 102 105 109 115 116 128 129 132 129 126 123 120 116 115 114 113
61 88 114 209 229 236 245 260 250 281 305 343 70 96 332 335 96 112 116 110 109 94 95 113 116 114 110 107 106 104 99 97 94 98 106 110 114 118 121 132 137 135 132 129 126 121 121 119 116
56 88 157 215 227 235 259 258 265 302 291 317 104 117 226 358 95 112 112 110 104 99 84 97 113 113 111 109 106 102 99 95 93 91 101 110 116 121 123 131 136 138 138 135 131 128 129 126 118
111 131 191 211 234 241 243 279 106 314 319 269 166 131 185 347 96 105 104 101 94 87 79 75 91 102 108 108 107 105 100 96 94 89 96 99 104 107 120 129 132 136 135 136 137 135 136 133 122
129 116 196 224 222 239 270 319 332 273 267 283 136 147 185 215 118 101 97 92 92 79 72 71 82 87 92 103 108 104 103 100 95 88 87 95 99 103 103 112 132 131 133 136 139 139 139 135 126
102 115 206 216 219 241 315 330 318 324 94 345 335 197 177 145 107 100 95 82 83 80 73 66 73 74 84 102 107 102 101 96 92 88 83 85 88 95 97 99 116 131 128 138 137 136 134 131 124
108 184 218 234 246 262 297 291 290 358 338 343 351 8 101 114 114 118 125 125 118 111 90 78 76 80 77 89 87 84 85 82 77 80 79 80 81 91 96 100 103 120 120 126 136 133 126 119 110
135 190 249 286 283 281 285 291 299 138 278 258 195 164 141 120 125 130 138 146 151 148 121 100 72 76 73 69 82 76 72 72 74 74 72 76 74 77 76 72 73 89 102 95 118 119 112 104 107
170 268 260 288 295 292 290 300 314 247 238 255 212 169 146 139 151 157 164 160 154 132 117 84 79 76 69 75 83 84 76 70 69 73 71 79 74 67 72 69 63 62 82 84 82 90 99 91 98
257 273 298 310 328 297 308 296 286 286 268 97 88 97 146 159 182 177 161 152 148 144 137 124 87 85 80 78 77 82 78 76 76 71 67 78 87 79 80 77 60 62 61 91 93 96 99 92 79
192 319 323 314 306 303 309 296 289 276 132 96 98 196 205 185 201 180 159 152 153 151 147 140 118 86 82 88 87 90 87 85 78 72 70 71 88 86 92 93 60 51 66 83 116 114 113 109 88
44 9 337 309 287 276 13 338 289 261 132 125 250 246 258 216 193 187 177 163 161 161 152 143 127 87 83 95 88 82 86 87 76 68 77 76 84 87 84 95 74 42 68 82 93 94 91 91 79
25 31 340 309 318 296 111 282 303 285 143 206 251 251 276 274 279 198 164 154 154 149 148 146 124 101 86 75 72 70 78 80 71 69 72 75 78 91 87 94 75 49 59 77 103 129 126 114 99
32 3 292 311 322 344 138 260 303 313 165 231 312 332 339 13 20 19 142 148 150 150 149 139 124 123 123 67 78 74 83 75 68 65 63 72 72 82 80 97 84 73 60 70 120 135 147 147 130
267 287 282 284 307 14 308 279 309 332 100 105 38 69 53 45 352 353 82 139 140 142 142 137 126 115 107 78 78 84 73 64 62 60 58 69 70 81 75 90 91 87 83 53 78 110 125 154 170
205 228 278 277 296 334 263 284 307 331 55 68 8 75 66 317 305 360 53 97 108 120 128 131 123 122 115 128 133 117 94 80 57 49 53 60 64 71 65 69 101 100 119 112 105 120 131 103 115
185 250 295 299 316 317 290 323 319 6 103 169 175 180 241 327 346 344 48 82 96 124 142 139 143 145 147 174 181 167 148 116 79 43 47 49 51 56 70 71 82 107 115 102 80 108 127 109 107
293 204 253 278 328 19 69 351 358 352 18 54 62 62 14 322 307 317 4 49 76 118 173 167 175 165 165 159 114 86 65 45 34 28 36 20 37 39 44 65 69 95 122 135 124 139 139 160 161
282 245 250 269 345 309 41 282 304 316 358 13 14 13 357 345 348 341 340 356 343 281 181 171 173 168 160 149 140 137 134 127 251 218 67 24 34 37 34 46 57 76 90 120 148 69 156 153 180
241 275 274 262 120 12 6 155 290 332 322 306 301 309 302 302 290 294 292 314 348 357 86 146 162 154 142 141 150 146 140 119 98 82 62 37 21 19 24 37 52 55 61 90 77 37 29 138 178
228 9 30 45 73 16 242 171 276 252 250 282 280 294 308 306 304 283 300 19 31 17 31 84 147 130 122 126 136 139 138 123 111 79 73 29 11 9 14 25 44 44 38 50 70 54 45 18 33
49 74 37 13 18 258 270 183 249 249 243 243 259 275 288 295 294 312 350 358 351 354 354 352 162 138 132 137 141 143 152 146 148 142 138 69 2 350 349 9 33 43 34 38 54 75 51 28 35
333 107 140 194 225 281 326 235 255 273 317 342 337 316 306 318 322 299 278 250 243 309 340 328 185 160 157 160 158 152 150 149 156 157 155 162 277 294 326 360 23 26 37 54 54 84 185 131 45
108 179 189 141 157 265 267 284 300 336 359 0 352 348 330 319 315 309 305 280 255 269 281 286 206 175 170 170 154 152 158 154 145 147 127 103 357 339 3 8 33 18 24 56 91 55 297 183 182
137 162 90 105 166 257 279 275 270 290 299 325 329 319 319 335 335 332 319 296 269 265 287 305 251 182 176 172 169 161 168 157 143 140 117 70 359 353 1 1 19 13 9 30 73 10 331 49 311
35 75 112 125 163 180 258 270 254 249 286 291 294 303 310 316 322 324 322 322 313 306 307 325 333 192 174 174 169 161 165 151 134 140 143 144 252 336 1 340 358 357 345 358 71 350 7 29 325
182 197 150 154 235 202 217 267 296 278 315 328 315 314 321 322 322 322 325 340 338 321 310 300 293 249 200 179 157 159 149 131 133 157 164 172 184 322 326 334 340 328 332 317 184 289 309 286 278
Height
1513 1514 1515 1517 1521 1530 1531 1525 1519 1517 1516 1515 1514 1514 1515 1518 1521 1526 1522 1520 1521 1522 1524 1525 1525 1526 1526 1527 1527 1527 1528 1528 1529 1529 1530 1530 1531 1531 1531 1532 1532 1533 1533 1533 1533 1533 1533 1533 1533
1513 1514 1516 1517 1525 1535 1530 1521 1518 1515 1514 1514 1514 1514 1515 1517 1518 1519 1519 1520 1521 1522 1523 1524 1525 1525 1526 1526 1526 1527 1527 1528 1528 1529 1529 1530 1530 1530 1531 1531 1532 1532 1533 1533 1533 1533 1533 1533 1533
1512 1513 1516 1518 1525 1527 1524 1517 1515 1514 1514 1514 1515 1515 1516 1517 1518 1518 1518 1519 1521 1522 1523 1523 1524 1524 1525 1525 1526 1526 1527 1527 1528 1528 1529 1529 1529 1530 1530 1531 1531 1532 1532 1533 1533 1533 1533 1533 1534
1512 1514 1516 1522 1522 1519 1516 1514 1513 1513 1513 1514 1515 1516 1517 1518 1518 1517 1518 1519 1520 1521 1522 1522 1523 1524 1524 1524 1525 1525 1526 1527 1527 1528 1528 1528 1528 1529 1529 1530 1531 1531 1531 1532 1532 1533 1533 1533 1533
1512 1513 1519 1523 1520 1516 1514 1513 1513 1513 1514 1514 1514 1516 1517 1518 1517 1517 1517 1518 1519 1520 1521 1522 1522 1523 1523 1523 1524 1524 1525 1526 1526 1527 1527 1527 1528 1528 1528 1529 1530 1531 1531 1531 1532 1532 1533 1533 1533
1512 1513 1522 1523 1519 1515 1514 1513 1513 1513 1514 1514 1514 1515 1517 1517 1517 1517 1517 1518 1519 1519 1520 1520 1521 1522 1522 1522 1523 1523 1524 1524 1525 1525 1526 1527 1527 1528 1528 1529 1529 1530 1530 1531 1531 1532 1532 1533 1533
1513 1516 1519 1520 1518 1516 1514 1513 1513 1513 1513 1514 1514 1515 1516 1517 1517 1517 1517 1518 1518 1519 1520 1520 1520 1521 1521 1522 1522 1522 1523 1523 1524 1524 1525 1525 1526 1526 1527 1527 1528 1529 1530 1530 1531 1531 1532 1532 1533
1512 1516 1518 1519 1518 1516 1513 1513 1513 1513 1513 1513 1513 1513 1514 1515 1516 1516 1516 1517 1517 1518 1519 1519 1519 1520 1520 1521 1521 1521 1521 1522 1522 1523 1523 1524 1525 1525 1526 1527 1527 1528 1528 1529 1530 1530 1531 1531 1532
1512 1519 1520 1518 1517 1515 1513 1512 1512 1512 1511 1511 1511 1511 1512 1513 1514 1514 1515 1516 1516 1517 1517 1518 1518 1519 1519 1519 1520 1520 1520 1520 1520 1521 1521 1522 1523 1524 1525 1525 1526 1527 1527 1528 1528 1529 1530 1530 1531
1513 1519 1516 1514 1514 1513 1512 1512 1511 1511 1510 1510 1509 1510 1511 1511 1512 1512 1513 1513 1514 1515 1516 1517 1517 1517 1518 1518 1518 1518 1519 1519 1519 1519 1520 1520 1521 1522 1523 1524 1524 1525 1526 1526 1527 1527 1529 1530 1530
1513 1516 1513 1513 1512 1512 1511 1511 1510 1510 1510 1509 1508 1509 1509 1509 1510 1510 1511 1512 1513 1514 1515 1515 1516 1516 1516 1516 1517 1517 1517 1517 1518 1518 1518 1519 1519 1520 1521 1522 1522 1523 1524 1525 1526 1526 1527 1528 1529
1513 1513 1512 1512 1511 1511 1511 1510 1510 1509 1508 1508 1507 1507 1507 1508 1508 1509 1510 1510 1511 1512 1513 1513 1514 1514 1515 1515 1515 1515 1515 1515 1516 1516 1517 1517 1517 1518 1519 1519 1520 1521 1522 1523 1524 1524 1525 1527 1528
1513 1513 1512 1511 1510 1510 1509 1509 1509 1508 1507 1507 1507 1506 1506 1506 1507 1507 1508 1509 1510 1510 1511 1512 1512 1512 1513 1512 1513 1514 1514 1514 1514 1514 1515 1516 1515 1516 1517 1517 1518 1519 1520 1521 1523 1523 1524 1526 1526
1512 1512 1511 1510 1509 1509 1509 1508 1509 1507 1506 1506 1505 1505 1505 1505 1505 1505 1506 1507 1508 1508 1509 1510 1510 1510 1511 1511 1511 1512 1512 1512 1513 1513 1513 1514 1514 1515 1516 1516 1517 1518 1518 1519 1521 1521 1523 1524 1525
1512 1512 1511 1510 1509 1509 1508 1509 1508 1506 1506 1505 1504 1504 1504 1504 1504 1504 1504 1505 1506 1507 1508 1508 1508 1509 1509 1510 1510 1510 1510 1511 1511 1512 1512 1512 1512 1513 1514 1515 1515 1516 1516 1517 1518 1520 1521 1522 1523
1513 1515 1517 1511 1509 1508 1511 1513 1508 1507 1506 1505 1504 1503 1503 1503 1502 1502 1503 1504 1504 1505 1506 1506 1507 1507 1507 1508 1508 1508 1509 1509 1509 1510 1510 1510 1510 1511 1512 1513 1513 1514 1514 1515 1516 1518 1519 1520 1521
1518 1521 1518 1514 1509 1509 1511 1512 1509 1506 1505 1504 1504 1503 1503 1502 1502 1501 1502 1503 1503 1503 1504 1505 1505 1505 1506 1506 1507 1507 1507 1507 1508 1508 1508 1509 1509 1509 1510 1510 1511 1512 1512 1513 1514 1515 1516 1517 1518
1521 1520 1518 1515 1511 1510 1512 1512 1508 1506 1505 1504 1504 1504 1503 1502 1501 1501 1501 1502 1502 1502 1503 1503 1503 1504 1504 1504 1505 1505 1505 1506 1506 1507 1507 1507 1507 1508 1508 1508 1509 1510 1511 1511 1512 1512 1514 1515 1516
1516 1518 1517 1514 1511 1511 1512 1511 1509 1507 1505 1505 1504 1503 1503 1502 1502 1501 1500 1500 1500 1501 1501 1501 1502 1502 1502 1502 1502 1503 1503 1503 1504 1505 1505 1505 1506 1505 1506 1506 1507 1508 1508 1509 1509 1510 1511 1512 1513
1515 1517 1517 1514 1510 1511 1511 1511 1509 1507 1506 1505 1504 1503 1502 1501 1501 1500 1499 1499 1499 1499 1500 1500 1500 1501 1501 1501 1501 1501 1502 1502 1502 1503 1503 1504 1504 1504 1504 1504 1505 1505 1506 1507 1508 1508 1508 1509 1511
1514 1516 1515 1514 1512 1510 1511 1512 1509 1507 1505 1505 1504 1503 1502 1502 1500 1499 1498 1498 1498 1498 1498 1499 1499 1500 1500 1500 1500 1500 1500 1500 1500 1500 1501 1501 1502 1502 1502 1503 1503 1503 1504 1505 1505 1506 1506 1506 1508
1515 1512 1512 1512 1515 1518 1515 1518 1511 1508 1506 1504 1504 1503 1502 1502 1500 1499 1498 1497 1497 1497 1497 1497 1498 1498 1498 1498 1498 1498 1497 1497 1498 1498 1498 1499 1500 1499 1500 1500 1501 1502 1503 1503 1503 1504 1504 1504 1505
1514 1511 1512 1512 1515 1519 1517 1520 1515 1509 1507 1505 1503 1502 1501 1501 1500 1498 1498 1496 1496 1496 1495 1495 1496 1496 1496 1495 1496 1496 1496 1496 1497 1497 1496 1497 1498 1498 1498 1498 1498 1499 1500 1501 1501 1502 1502 1502 1503
1513 1513 1512 1516 1519 1523 1519 1522 1518 1512 1507 1504 1503 1501 1500 1500 1499 1497 1497 1495 1495 1495 1494 1494 1494 1494 1494 1494 1494 1494 1494 1495 1495 1495 1495 1495 1495 1496 1496 1496 1496 1496 1498 1499 1499 1500 1500 1500 1500
1515 1520 1525 1525 1528 1523 1517 1518 1515 1507 1504 1503 1501 1500 1500 1499 1497 1496 1494 1493 1493 1493 1492 1492 1492 1492 1492 1492 1492 1492 1493 1493 1493 1493 1494 1494 1494 1494 1495 1495 1495 1495 1496 1497 1497 1498 1498 1498 1498
1518 1520 1527 1529 1529 1524 1518 1518 1511 1504 1502 1501 1501 1500 1498 1497 1496 1495 1494 1493 1492 1491 1491 1491 1490 1490 1490 1490 1491 1491 1492 1492 1492 1492 1492 1492 1492 1493 1493 1494 1494 1494 1494 1495 1495 1496 1496 1496 1496
1520 1522 1521 1526 1529 1531 1524 1518 1509 1503 1502 1501 1500 1499 1497 1496 1495 1494 1492 1492 1491 1491 1490 1489 1489 1488 1489 1489 1488 1489 1490 1490 1490 1490 1491 1491 1492 1492 1492 1492 1492 1492 1492 1493 1493 1493 1494 1494 1494
1519 1520 1525 1527 1528 1527 1523 1519 1513 1506 1504 1502 1501 1499 1497 1495 1494 1493 1492 1491 1490 1490 1489 1489 1487 1487 1487 1487 1487 1487 1488 1488 1488 1489 1489 1489 1490 1490 1490 1490 1490 1490 1490 1491 1491 1491 1492 1492 1491
1521 1522 1523 1527 1528 1528 1527 1518 1505 1505 1504 1502 1501 1499 1497 1495 1494 1492 1491 1491 1490 1489 1488 1487 1486 1486 1486 1486 1486 1486 1486 1487 1487 1488 1487 1488 1488 1488 1488 1489 1489 1489 1489 1489 1489 1489 1489 1489 1489
1520 1521 1523 1528 1529 1529 1528 1519 1503 1503 1502 1501 1501 1499 1497 1495 1494 1492 1491 1490 1489 1488 1487 1486 1485 1485 1485 1484 1484 1485 1485 1485 1485 1485 1485 1486 1487 1487 1487 1487 1487 1487 1487 1487 1487 1486 1487 1487 1486